Regional Weather Roundup
Issued by NWS Charleston, WV

Home | Current Version | Previous Version | Graphics & Text | Print | Product List | Glossary On
Versions: 1 2 3 4 5 6 7 8 9 10 11 12 13 14 15 16 17 18 19 20 21 22 23 24 25 26 27 28 29 30 31 32 33 34 35 36 37 38 39 40 41 42 43 44 45 46 47 48 49 50
000
ASUS41 KRLX 300610
RWRRLX
West Virginia Regional Weather Roundup
National Weather Service Charleston WV
200 AM EDT WED JUL 30 2014

Note: "fair" indicates few or no clouds below 12,000 feet with no
significant weather and/or obstructions to visibility.

WVZ003-300700-
Northern Panhandle of West Virginia

CITY           SKY/WX    TMP DP  RH WIND       PRES   REMARKS
WHEELING       CLEAR     55  51  86 S7        30.05S
$$

WVZ009-300700-
Northwest West Virginia

CITY           SKY/WX    TMP DP  RH WIND       PRES   REMARKS
PARKERSBURG    CLEAR     54  52  93 CALM      30.09S
$$

WVZ006-300700-
Western West Virginia

CITY           SKY/WX    TMP DP  RH WIND       PRES   REMARKS
HUNTINGTON     FOG       54  54 100 CALM      30.07S VSB 1/4
$$

WVZ015-300700-
West Central West Virginia

CITY           SKY/WX    TMP DP  RH WIND       PRES   REMARKS
CHARLESTON     PTCLDY    57  57 100 CALM      30.07S
$$

WVZ031-300700-
North Central West Virginia

CITY           SKY/WX    TMP DP  RH WIND       PRES   REMARKS
CLARKSBURG     MOCLDY    53  51  93 CALM      30.07S
MORGANTOWN     CLEAR     54  50  86 CALM      30.07F
$$

WVZ035-042-045-300700-
South Central West Virginia

CITY           SKY/WX    TMP DP  RH WIND       PRES   REMARKS
BECKLEY        CLEAR     52  49  89 S5        30.12S
BLUEFIELD      CLEAR     54  48  80 W6        30.13S
LEWISBURG      CLEAR     52  49  90 CALM      30.11S
$$

WVZ047-300700-
Northern Mountains of West Virginia

CITY           SKY/WX    TMP DP  RH WIND       PRES   REMARKS
ELKINS         MOCLDY    50  48  93 CALM      30.11R FOG
$$

WVZ052-300700-
Eastern Panhandle of West Virginia

CITY           SKY/WX    TMP DP  RH WIND       PRES   REMARKS
MARTINSBURG    CLEAR     53  48  83 S3        30.04F
PETERSBURG     CLEAR     48  45  88 CALM      30.09S FOG
$$



USA.gov is the U.S. government's official web portal to all federal, state and local government web resources and services.